Vorticity
6 5 5 5 4 4 7 6 7 6 5 9 10 10 9 9 8 8 10 9 5 7 9 6 7 8 9 9 9 4 1 8 6 12 16 -1 2 7 12 18 4 0 2 -1 5
6 6 6 6 6 6 4 6 6 7 6 5 8 10 9 9 8 7 10 10 10 8 6 7 10 12 11 9 8 5 11 10 0 -7 9 8 13 5 3 8 5 5 2 3 2
6 4 4 6 6 6 6 5 5 7 8 6 5 7 9 9 8 11 12 10 10 10 13 10 10 10 12 11 7 16 1 -1 -0 -1 6 6 0 -1 9 12 12 -1 3 8 9
6 6 6 4 5 6 7 7 6 5 8 9 6 5 8 10 10 8 9 15 7 6 8 8 9 12 12 -0 15 1 21 -4 5 3 0 -0 -0 -1 9 10 10 13 10 9 8
6 7 6 6 5 5 5 6 9 6 6 9 8 6 7 7 10 9 8 8 8 8 12 13 13 11 5 16 3 11 7 12 5 3 2 9 12 13 13 13 8 3 4 5 11
6 5 6 7 6 6 5 5 6 10 5 8 9 6 6 2 11 12 10 9 8 14 9 10 8 -0 8 -3 11 6 22 -2 4 7 14 15 11 9 15 7 12 5 3 4 1
8 7 5 6 8 5 7 6 5 7 11 5 9 7 5 5 9 9 9 10 15 10 10 9 11 5 4 11 4 4 -3 7 3 7 9 11 15 12 26 10 12 11 7 4 4
12 11 9 8 7 9 8 4 7 4 10 8 8 10 6 5 6 8 9 16 10 9 9 11 6 6 8 2 3 13 17 11 16 15 13 15 1 13 22 13 11 14 18 11 10
8 8 14 9 9 5 9 9 4 7 6 10 7 9 14 7 11 12 13 12 8 9 7 8 9 7 8 4 10 12 3 11 9 8 2 11 1 18 11 14 15 11 7 12 11
11 11 9 11 10 6 4 12 9 3 8 7 6 14 15 2 2 13 13 10 7 6 7 11 9 6 9 5 6 9 5 11 8 7 2 2 15 1 4 3 13 9 11 10 11
12 10 13 8 8 9 23 4 14 13 11 14 -14 -11 17 4 20 20 14 8 6 4 9 8 7 4 22 23 -13 -0 3 6 7 10 8 10 8 16 4 0 -0 7 9 8 8
9 11 7 9 4 1 23 22 6 6 16 4 3 3 5 4 -2 -3 6 8 7 9 7 4 8 17 2 11 11 8 7 6 8 1 7 11 8 12 15 12 12 5 12 10 5
9 13 10 16 9 14 1 6 19 13 6 14 6 9 6 7 8 4 10 7 9 7 5 -1 16 8 6 9 3 -5 18 10 -6 2 2 14 38 35 42 5 5 7 6 9 2
11 13 12 8 13 10 8 6 27 2 22 19 2 36 7 5 4 13 7 13 11 15 11 8 6 -2 5 5 19 19 10 6 6 12 11 4 -2 4 8 22 9 9 4 9 4
14 16 13 8 7 6 7 13 2 28 7 34 30 3 23 23 7 19 15 13 10 6 -8 7 16 10 5 14 8 9 14 8 9 9 6 32 4 14 19 21 19 13 9 8 7
24 24 17 12 10 11 6 9 16 24 14 10 14 24 12 18 9 20 7 8 7 7 12 -1 9 9 15 17 11 16 10 12 11 17 11 32 -10 21 16 17 19 21 21 17 19
10 28 20 10 7 19 4 -1 25 -8 5 30 6 5 18 11 7 13 8 6 -21 -1 4 0 5 6 10 8 7 4 12 5 2 6 3 15 4 -5 14 6 8 31 16 12 11
24 20 28 5 9 9 12 10 -13 58 -12 7 38 26 17 17 9 8 13 11 -8 -21 56 7 35 2 17 -0 -9 14 -10 -1 8 10 10 8 17 15 9 7 13 7 22 6 8
-19 11 25 2 -0 15 7 -5 -3 -18 64 -44 4 32 0 4 14 4 7 20 16 -20 -25 7 14 32 9 16 2 33 6 7 1 9 2 9 16 10 8 2 9 10 16 10 2
28 2 25 14 8 13 27 -14 12 4 -34 -6 19 -5 28 17 -22 11 2 54 20 -13 -29 21 10 7 9 17 6 -8 23 7 12 5 6 18 8 -13 18 20 17 10 6 10 -0
11 28 19 25 -2 -9 -4 -10 -3 7 -41 25 19 -6 -8 24 -12 15 31 11 15 12 11 -14 -22 28 13 16 14 -1 1 1 6 -1 4 5 18 18 9 17 17 11 2 8 -5
7 27 13 16 6 42 -39 21 5 5 70 -12 -1 18 14 9 36 -8 -16 -35 40 9 8 4 9 5 10 12 11 14 4 -11 -15 25 5 10 24 11 -6 -1 24 12 4 2 -8
29 20 8 -6 11 30 32 24 14 -14 -6 25 -10 10 -9 33 5 27 4 9 29 13 7 35 21 -1 19 18 15 8 10 9 -19 -4 6 -12 17 18 13 6 -5 -5 -3 7 11
44 16 11 22 3 14 24 -2 4 19 13 37 -11 -23 8 -1 -3 45 -5 5 2 14 8 45 16 -11 -12 18 35 7 8 6 6 9 13 -21 -11 10 0 -14 9 7 5 2 2
16 19 -1 47 -40 10 6 -20 9 -22 29 4 -17 2 -12 -21 10 11 19 9 8 11 10 -1 10 -1 -3 8 6 14 39 28 5 -11 -11 14 16 11 -0 5 6 4 3 4 12
33 -17 6 -11 22 49 11 33 14 29 6 9 19 -1 53 -2 -37 8 -7 -11 -20 24 9 -2 6 16 12 -3 -5 -2 -3 1 9 12 4 -3 2 1 11 7 1 -15 -3 28 5
21 3 16 48 5 4 18 -6 28 22 15 16 -8 9 10 -18 45 -10 16 25 19 25 23 8 -7 6 14 13 11 32 23 9 5 5 14 4 16 5 10 37 15 21 11 5 1
Height
3092 3090 3088 3087 3086 3084 3084 3082 3080 3078 3077 3077 3077 3075 3074 3074 3072 3071 3072 3073 3074 3074 3076 3077 3078 3079 3081 3082 3084 3087 3090 3089 3092 3093 3093 3096 3097 3098 3100 3100 3098 3099 3103 3107 3108
3088 3087 3086 3084 3082 3081 3080 3079 3078 3076 3074 3072 3073 3073 3070 3069 3068 3068 3069 3068 3069 3071 3072 3073 3074 3076 3077 3078 3081 3083 3084 3088 3089 3089 3089 3091 3092 3095 3097 3096 3096 3097 3101 3102 3103
3083 3081 3081 3080 3080 3078 3076 3075 3074 3073 3071 3069 3068 3069 3069 3066 3065 3065 3064 3064 3065 3067 3068 3070 3071 3073 3074 3075 3077 3079 3079 3084 3083 3086 3087 3088 3089 3091 3091 3092 3092 3096 3097 3098 3098
3079 3077 3075 3074 3074 3073 3072 3071 3070 3069 3068 3066 3064 3064 3065 3065 3065 3062 3062 3061 3062 3064 3065 3067 3068 3069 3070 3071 3074 3075 3078 3080 3078 3081 3085 3084 3084 3086 3087 3087 3087 3090 3092 3093 3094
3074 3072 3071 3070 3069 3068 3067 3067 3066 3065 3064 3063 3060 3059 3060 3061 3062 3060 3060 3059 3060 3061 3062 3063 3065 3066 3067 3070 3071 3071 3074 3075 3074 3077 3080 3080 3080 3082 3083 3081 3084 3084 3085 3089 3091
3069 3067 3067 3065 3063 3063 3062 3062 3062 3061 3059 3059 3057 3055 3056 3057 3057 3057 3056 3057 3058 3058 3059 3061 3062 3063 3065 3066 3067 3068 3070 3070 3070 3073 3074 3074 3076 3075 3078 3079 3079 3080 3082 3084 3085
3064 3062 3061 3060 3059 3058 3057 3056 3057 3056 3056 3054 3054 3050 3051 3051 3052 3053 3053 3053 3054 3056 3057 3058 3060 3061 3062 3064 3065 3065 3068 3068 3067 3069 3068 3070 3070 3069 3075 3074 3075 3078 3079 3079 3080
3056 3056 3055 3055 3054 3053 3051 3051 3050 3051 3051 3049 3048 3048 3044 3046 3046 3048 3049 3049 3051 3053 3054 3056 3057 3058 3059 3061 3062 3063 3064 3063 3065 3064 3065 3067 3066 3066 3067 3069 3071 3074 3076 3075 3076
3050 3049 3049 3048 3048 3047 3046 3045 3044 3044 3045 3044 3043 3042 3041 3039 3041 3042 3044 3046 3047 3049 3051 3053 3054 3055 3057 3058 3060 3060 3060 3060 3061 3061 3062 3064 3063 3063 3064 3065 3066 3068 3070 3072 3073
3041 3041 3041 3041 3041 3041 3040 3040 3038 3039 3038 3039 3037 3039 3037 3036 3036 3037 3038 3041 3044 3046 3048 3050 3050 3051 3052 3053 3053 3055 3056 3058 3058 3059 3059 3060 3061 3060 3060 3062 3063 3063 3065 3067 3069
3032 3032 3032 3033 3033 3033 3034 3033 3035 3035 3031 3034 3031 3033 3030 3032 3032 3033 3035 3036 3039 3042 3044 3045 3047 3046 3049 3051 3051 3052 3054 3055 3055 3056 3056 3056 3056 3058 3058 3057 3058 3059 3060 3062 3065
3022 3023 3023 3024 3025 3026 3025 3025 3027 3027 3021 3024 3025 3025 3025 3026 3027 3029 3031 3033 3034 3037 3039 3042 3041 3044 3045 3048 3049 3050 3052 3053 3053 3053 3054 3052 3049 3050 3051 3050 3052 3055 3057 3058 3059
3012 3013 3014 3014 3014 3018 3018 3018 3018 3017 3013 3011 3017 3017 3020 3019 3021 3023 3026 3026 3029 3032 3032 3036 3038 3040 3042 3044 3046 3048 3048 3049 3051 3050 3051 3049 3042 3041 3042 3043 3046 3050 3053 3054 3055
3000 3002 3004 3006 3007 3008 3010 3011 3011 3011 3009 3001 3005 3006 3006 3009 3011 3015 3019 3023 3024 3027 3030 3033 3034 3036 3039 3041 3043 3044 3045 3047 3048 3049 3049 3047 3044 3039 3039 3038 3041 3044 3046 3050 3051
2987 2990 2993 2995 2997 2999 3003 3003 3006 3006 3005 2997 2994 2994 2997 3003 3003 3005 3012 3013 3017 3022 3026 3027 3027 3031 3035 3037 3039 3041 3043 3045 3046 3046 3045 3044 3047 3035 3034 3036 3038 3040 3041 3044 3048
2974 2977 2981 2985 2988 2992 2995 2997 3001 3004 2993 2987 2986 2987 2991 2994 2996 2999 3003 3008 3016 3018 3020 3023 3025 3028 3029 3032 3036 3039 3041 3042 3042 3043 3045 3039 3041 3032 3032 3034 3035 3035 3036 3039 3042
2964 2966 2969 2974 2978 2985 2987 2992 2998 2989 2986 2982 2980 2982 2987 2989 2990 2993 2996 3001 3006 3011 3013 3018 3020 3023 3027 3030 3032 3035 3038 3041 3045 3046 3043 3037 3038 3028 3028 3029 3032 3031 3033 3037 3041
2952 2955 2957 2963 2969 2976 2979 2983 2985 2978 2980 2977 2976 2979 2980 2986 2987 2989 2992 2995 3001 3005 3006 3009 3017 3017 3021 3025 3027 3029 3033 3032 3036 3041 3036 3036 3030 3026 3025 3026 3029 3030 3032 3035 3038
2942 2944 2946 2954 2960 2965 2972 2969 2965 2973 2974 2975 2975 2976 2979 2982 2986 2985 2985 2988 2993 2998 3001 3003 3008 3010 3015 3018 3024 3025 3027 3029 3030 3032 3034 3028 3026 3025 3024 3024 3026 3028 3030 3034 3037
2931 2934 2937 2945 2951 2954 2957 2957 2957 2963 2968 2969 2971 2972 2972 2975 2980 2980 2981 2981 2986 2993 2996 2998 3003 3008 3012 3016 3019 3020 3023 3027 3027 3037 3036 3024 3023 3021 3022 3022 3023 3025 3028 3031 3033
2923 2924 2929 2936 2943 2940 2935 2943 2948 2955 2963 2967 2967 2968 2969 2970 2973 2974 2976 2978 2981 2987 2992 2995 2997 3006 3009 3009 3010 3015 3017 3020 3022 3023 3026 3029 3020 3017 3019 3021 3022 3024 3026 3028 3029
2916 2916 2921 2927 2933 2926 2931 2937 2942 2949 2956 2960 2962 2964 2965 2966 2967 2971 2973 2975 2976 2983 2985 2990 2994 2999 3003 3004 3007 3010 3012 3014 3016 3020 3019 3020 3017 3015 3018 3019 3020 3022 3024 3025 3026
2907 2908 2915 2920 2921 2921 2928 2932 2938 2943 2948 2951 2956 2959 2961 2961 2965 2966 2970 2973 2975 2979 2983 2985 2989 2995 3001 3005 3003 3003 3005 3009 3012 3014 3013 3018 3013 3012 3015 3016 3018 3019 3020 3020 3020
2898 2902 2907 2912 2911 2918 2922 2927 2932 2937 2941 2944 2949 2953 2956 2958 2960 2961 2965 2970 2973 2976 2979 2981 2982 2984 2988 2988 2991 2994 2997 3002 3008 3009 3008 3006 3007 3009 3012 3013 3013 3013 3014 3016 3016
2893 2895 2898 2903 2905 2913 2919 2922 2927 2931 2934 2938 2943 2947 2951 2956 2957 2959 2963 2966 2970 2972 2975 2979 2980 2982 2984 2987 2989 2991 2993 2995 2998 3001 3003 3002 3003 3006 3007 3008 3008 3008 3009 3009 3009
2887 2891 2896 2898 2903 2908 2914 2915 2920 2926 2931 2932 2936 2942 2945 2947 2951 2958 2960 2963 2966 2969 2971 2974 2976 2979 2983 2985 2987 2989 2991 2992 2995 2996 2996 2997 2996 3000 3001 3001 3001 3002 3003 3004 3004
2883 2888 2894 2896 2901 2906 2909 2912 2914 2922 2924 2928 2933 2935 2940 2943 2947 2953 2957 2960 2962 2963 2966 2970 2973 2976 2980 2982 2984 2985 2982 2983 2984 2986 2988 2989 2990 2995 2995 2994 2997 2998 3000 3000 3000